Berthoud Pass, CO

6:09 PM MDT on July 27, 2017 (GMT -0600)
Berthoud Pass

Weather History for K0CO - November, 2013

Change the Weather History Date:

Saturday, November 16, 2013

  Actual Average (KBJC) Record (KBJC)
Temperature  
Mean Temperature 14 °F -  
Max Temperature 19 °F 50 °F 80 °F (2016)
Min Temperature 8 °F 30 °F 3 °F (2014)
Degree Days  
Heating Degree Days 52    
Moisture  
Dew Point 3 °F    
Average Humidity 64    
Maximum Humidity 68    
Minimum Humidity 62    
Precipitation  
Precipitation 0.00 in - - ()
Sea Level Pressure  
Sea Level Pressure 29.51 in    
Wind  
Wind Speed 37 mph (WNW)    
Max Wind Speed 58 mph    
Max Gust Speed 69 mph    
Visibility 3 miles    
Events Snow    
Averages and records for this station are not official NWS values.
T = Trace of Precipitation, MM = Missing Value Source: NWS Daily Summary

Daily Weather History Graph

Daily Weather History Graph

Search for Another Location

Airport or City:

Trip Planner

Search our weather history database for the weather conditions in past years. The results will help you decide how hot, cold, wet, or windy it might be!

Date:

Astronomy

Nov. 16, 2013 Rise Set
Actual Time 6:49 AM MST 4:46 PM MST
Civil Twilight 6:20 AM MST 5:15 PM MST
Nautical Twilight 5:47 AM MST 5:47 PM MST
Astronomical Twilight 5:15 AM MST 6:19 PM MST
Moon 4:23 PM MST (11/16) 5:48 AM MST (11/16)
Length of Visible Light 10h 55m
Length of Day
9h 56m
Waxing Gibbous, 99% of the Moon is Illuminated
Nov 16
Waxing Gibbous
Nov 17
Full
Nov 25
Last Quarter
Dec 2
New
Dec 9
First Quarter

Hourly Weather History & Observations

Time (MST) Temp. Windchill Dew Point Humidity Pressure Visibility Wind Dir Wind Speed Gust Speed Precip Events Conditions
12:15 AM 14.0 °F - 3.2 °F 62% 29.59 in 0.8 mi North - - N/A Snow Light Snow
12:35 AM 12.2 °F -10.2 °F 3.2 °F 67% 29.57 in 0.8 mi West 33.4 mph 48.3 mph N/A Snow Snow
12:55 AM 12.2 °F -12.1 °F 3.2 °F 67% 29.52 in 0.5 mi WNW 41.4 mph 61.0 mph N/A Snow Heavy Snow
1:15 AM 12.2 °F -11.8 °F 1.4 °F 62% 29.54 in 0.2 mi NW 40.3 mph 52.9 mph N/A Snow Heavy Snow
1:35 AM 12.2 °F -10.5 °F 1.4 °F 62% 29.52 in 0.2 mi WNW 34.5 mph 55.2 mph N/A Snow Heavy Snow
1:55 AM 12.2 °F - 1.4 °F 62% 29.45 in 0.2 mi North - - N/A Snow Heavy Snow
2:15 AM 12.2 °F - 1.4 °F 62% 29.45 in 0.2 mi North - - N/A Snow Heavy Snow
2:35 AM 12.2 °F - 1.4 °F 62% 29.47 in 0.2 mi North - - N/A Snow Heavy Snow
2:55 AM 10.4 °F -15.1 °F 1.4 °F 67% 29.45 in 0.5 mi WNW 43.7 mph 51.8 mph N/A Snow Light Snow
3:15 AM 10.4 °F -16.4 °F 1.4 °F 67% 29.46 in 0.8 mi West 50.6 mph 63.3 mph N/A Snow Light Snow
3:35 AM 10.4 °F -17.6 °F 1.4 °F 67% 29.46 in 0.8 mi West 57.5 mph 69.0 mph N/A Snow Light Snow
3:55 AM 10.4 °F -16.6 °F -0.4 °F 62% 29.48 in 1.0 mi West 51.8 mph 67.9 mph N/A Snow Light Snow
4:15 AM 10.4 °F -15.1 °F -0.4 °F 62% 29.51 in 3.0 mi WNW 43.7 mph 58.7 mph N/A Snow Light Snow
4:35 AM 10.4 °F -14.8 °F -0.4 °F 62% 29.52 in 10.0 mi WNW 42.6 mph 52.9 mph N/A   Scattered Clouds
4:55 AM 10.4 °F -12.7 °F -0.4 °F 62% 29.56 in 10.0 mi WNW 33.4 mph 50.6 mph N/A   Clear
5:15 AM 10.4 °F -11.4 °F -0.4 °F 62% 29.55 in 10.0 mi NW 28.8 mph 42.6 mph N/A   Scattered Clouds
5:35 AM 10.4 °F -13.8 °F -0.4 °F 62% 29.52 in 10.0 mi WNW 38.0 mph 49.5 mph N/A   Scattered Clouds
5:55 AM 10.4 °F - 1.4 °F 67% 29.51 in 10.0 mi North - - N/A   Clear
6:15 AM 12.2 °F -11.8 °F 1.4 °F 62% 29.52 in 10.0 mi WNW 40.3 mph 49.5 mph N/A   Clear
6:35 AM 12.2 °F -11.0 °F 1.4 °F 62% 29.52 in 10.0 mi WNW 36.8 mph 49.5 mph N/A   Clear
6:55 AM 12.2 °F -11.8 °F 1.4 °F 62% 29.50 in 10.0 mi WNW 40.3 mph 54.1 mph N/A   Clear
7:15 AM 12.2 °F -9.6 °F 1.4 °F 62% 29.54 in 10.0 mi NW 31.1 mph 44.9 mph N/A   Clear
7:35 AM 12.2 °F -9.3 °F 1.4 °F 62% 29.54 in 10.0 mi NW 29.9 mph 47.2 mph N/A   Clear
7:55 AM 12.2 °F -10.5 °F 1.4 °F 62% 29.53 in 10.0 mi NW 34.5 mph 43.7 mph N/A   Clear
8:15 AM 12.2 °F -9.3 °F 3.2 °F 67% 29.54 in 10.0 mi NW 29.9 mph 42.6 mph N/A   Clear
8:35 AM 12.2 °F -9.3 °F 1.4 °F 62% 29.54 in 10.0 mi NW 29.9 mph 39.1 mph N/A   Clear
8:55 AM 12.2 °F -10.5 °F 3.2 °F 67% 29.53 in 10.0 mi WNW 34.5 mph 43.7 mph N/A   Clear
9:15 AM 14.0 °F -6.8 °F 3.2 °F 62% 29.54 in 10.0 mi WNW 29.9 mph 44.9 mph N/A   Clear
9:35 AM 17.6 °F -4.3 °F 6.8 °F 63% 29.53 in 10.0 mi WNW 40.3 mph 50.6 mph N/A   Clear
9:55 AM 17.6 °F -4.5 °F 6.8 °F 63% 29.53 in 7.0 mi West 41.4 mph 54.1 mph N/A   Clear
10:15 AM 17.6 °F -6.0 °F 6.8 °F 63% 29.51 in 2.0 mi West 49.5 mph 63.3 mph N/A   Haze
10:35 AM 17.6 °F -3.8 °F 6.8 °F 63% 29.53 in 5.0 mi West 38.0 mph 69.0 mph N/A   Haze
10:55 AM 17.6 °F -3.3 °F 6.8 °F 63% 29.53 in 7.0 mi West 35.7 mph 52.9 mph N/A   Mostly Cloudy
11:15 AM 17.6 °F -4.1 °F 6.8 °F 63% 29.51 in 7.0 mi West 39.1 mph 57.5 mph N/A   Mostly Cloudy
11:35 AM 19.4 °F -0.6 °F 8.6 °F 63% 29.52 in 10.0 mi West 34.5 mph 69.0 mph N/A   Mostly Cloudy
11:55 AM 19.4 °F -2.7 °F 8.6 °F 63% 29.49 in 10.0 mi West 44.9 mph 58.7 mph N/A   Overcast
12:15 PM 19.4 °F -2.9 °F 8.6 °F 63% 29.48 in 5.0 mi West 46.0 mph 64.4 mph N/A   Haze
12:35 PM 17.6 °F -5.0 °F 6.8 °F 63% 29.49 in 3.0 mi West 43.7 mph 56.4 mph N/A   Haze
12:55 PM 17.6 °F -4.1 °F 8.6 °F 68% 29.48 in 3.0 mi West 39.1 mph 57.5 mph N/A   Haze
1:15 PM 17.6 °F -3.3 °F 6.8 °F 63% 29.50 in 1.8 mi West 35.7 mph 58.7 mph N/A Snow Light Snow
1:35 PM 17.6 °F 0.1 °F 6.8 °F 63% 29.51 in 2.0 mi West 23.0 mph 44.9 mph N/A Snow Light Snow
1:55 PM 17.6 °F -2.8 °F 6.8 °F 63% 29.49 in 1.5 mi West 33.4 mph 44.9 mph N/A Snow Light Snow
2:15 PM 15.8 °F - 5.0 °F 62% 29.51 in 1.0 mi North - - N/A Snow Light Snow
2:35 PM 15.8 °F -2.7 °F 5.0 °F 62% 29.51 in 0.8 mi West 24.2 mph 36.8 mph N/A Snow Light Snow
2:55 PM 15.8 °F -1.9 °F 5.0 °F 62% 29.51 in 1.0 mi West 21.9 mph 29.9 mph N/A Snow Light Snow
3:15 PM 15.8 °F -4.7 °F 5.0 °F 62% 29.49 in 0.5 mi West 31.1 mph 40.3 mph N/A Snow Light Snow
3:35 PM 15.8 °F -2.3 °F 5.0 °F 62% 29.51 in 0.2 mi WNW 23.0 mph 36.8 mph N/A Snow Snow
3:55 PM 15.8 °F -2.3 °F 5.0 °F 62% 29.50 in 0.2 mi WNW 23.0 mph 28.8 mph N/A Snow Heavy Snow
4:15 PM 14.0 °F -6.2 °F 5.0 °F 67% 29.50 in 0.2 mi WNW 27.6 mph 40.3 mph N/A Snow Snow
4:35 PM 14.0 °F -6.5 °F 5.0 °F 67% 29.50 in 0.2 mi West 28.8 mph 50.6 mph N/A Snow Snow
4:55 PM 14.0 °F -7.4 °F 5.0 °F 67% 29.49 in 0.5 mi West 32.2 mph 42.6 mph N/A Snow Snow
5:15 PM 14.0 °F -9.1 °F 5.0 °F 67% 29.49 in 0.5 mi West 39.1 mph - N/A Snow Snow
5:35 PM 14.0 °F -7.4 °F 5.0 °F 67% 29.51 in 0.8 mi West 32.2 mph - N/A Snow Snow
5:55 PM 14.0 °F -5.1 °F 5.0 °F 67% 29.52 in 1.0 mi West 24.2 mph 38.0 mph N/A Snow Snow
6:15 PM 14.0 °F -5.8 °F 5.0 °F 67% 29.50 in 0.5 mi West 26.5 mph 43.7 mph N/A Snow Snow
6:35 PM 14.0 °F -4.7 °F 5.0 °F 67% 29.50 in 0.8 mi WNW 23.0 mph 29.9 mph N/A Snow Snow
6:55 PM 14.0 °F -7.4 °F 5.0 °F 67% 29.48 in 0.2 mi WNW 32.2 mph 50.6 mph N/A Snow Heavy Snow
7:15 PM 14.0 °F -7.1 °F 3.2 °F 62% 29.52 in 0.2 mi WNW 31.1 mph 50.6 mph N/A Snow Heavy Snow
7:35 PM 14.0 °F -7.4 °F 3.2 °F 62% 29.52 in 0.2 mi WNW 32.2 mph - N/A Snow Heavy Snow
7:55 PM 14.0 °F - 3.2 °F 62% 29.53 in 0.5 mi North - - N/A Snow Heavy Snow
8:15 PM 14.0 °F - 3.2 °F 62% 29.52 in 0.2 mi North - - N/A Snow Heavy Snow
8:35 PM 12.2 °F - 1.4 °F 62% 29.51 in 0.2 mi North - - N/A Snow Heavy Snow
8:55 PM 12.2 °F - 1.4 °F 62% 29.51 in 0.2 mi North - - N/A Snow Heavy Snow
9:15 PM 10.4 °F - 1.4 °F 67% 29.50 in 0.2 mi North - - N/A Snow Heavy Snow
9:35 PM 10.4 °F - 1.4 °F 67% 29.51 in 0.2 mi North - - N/A Snow Heavy Snow
9:55 PM 10.4 °F - 1.4 °F 67% 29.47 in 0.2 mi North - - N/A Snow Heavy Snow
10:15 PM 10.4 °F - 1.4 °F 67% 29.48 in 0.2 mi North - - N/A Snow Heavy Snow
10:35 PM 10.4 °F - -0.4 °F 62% 29.50 in 0.2 mi North - - N/A Snow Heavy Snow
10:55 PM 10.4 °F - -0.4 °F 62% 29.49 in 0.2 mi North - - N/A Snow Heavy Snow
11:15 PM 10.4 °F - -0.4 °F 62% 29.48 in 0.2 mi North - - N/A Snow Heavy Snow
11:35 PM 8.6 °F - -0.4 °F 67% 29.47 in 0.2 mi North - - N/A Snow Heavy Snow
11:55 PM 8.6 °F - -0.4 °F 67% 29.49 in 0.2 mi North - - N/A Snow Heavy Snow